Weather History for KSVH - November, 2013

Change the Weather History Date:

Saturday, November 23, 2013

  Actual Average (KHKY) Record (KHKY)
Temperature  
Mean Temperature 49 °F -  
Max Temperature 59 °F 56 °F 73 °F (1973)
Min Temperature 39 °F 35 °F 17 °F (1970)
Degree Days  
Heating Degree Days 16    
Moisture  
Dew Point 38 °F    
Average Humidity 64    
Maximum Humidity 100    
Minimum Humidity 30    
Precipitation  
Precipitation 0.00 in - - ()
Sea Level Pressure  
Sea Level Pressure 30.12 in    
Wind  
Wind Speed 3 mph (NNW)    
Max Wind Speed 10 mph    
Max Gust Speed 21 mph    
Visibility 8 miles    
Events Fog    
Averages and records for this station are not official NWS values.
T = Trace of Precipitation, MM = Missing Value Source: NWS Daily Summary

Daily Weather History Graph

Daily Weather History Graph

Search for Another Location

Airport or City:

Trip Planner

Search our weather history database for the weather conditions in past years. The results will help you decide how hot, cold, wet, or windy it might be!

Date:

Astronomy

Nov. 23, 2013 Rise Set
Actual Time 7:07 AM EST 5:12 PM EST
Civil Twilight 6:40 AM EST 5:40 PM EST
Nautical Twilight 6:09 AM EST 6:11 PM EST
Astronomical Twilight 5:38 AM EST 6:41 PM EST
Moon 10:35 PM EST (11/23) 11:27 AM EST (11/23)
Length of Visible Light 10h 59m
Length of Day
10h 04m
Waning Gibbous, 70% of the Moon is Illuminated
Nov 23
Waning Gibbous
Nov 25
Last Quarter
Dec 2
New
Dec 9
First Quarter
Dec 17
Full

Hourly Weather History & Observations

Time (EST) Temp. Windchill Dew Point Humidity Pressure Visibility Wind Dir Wind Speed Gust Speed Precip Events Conditions
12:15 AM 57.9 °F - 56.1 °F 94% 30.10 in 7.0 mi Calm Calm - N/A   Overcast
12:35 AM 57.7 °F - 55.9 °F 94% 30.10 in 7.0 mi SSW 3.5 mph - N/A   Overcast
12:55 AM 57.4 °F - 55.8 °F 94% 30.10 in 7.0 mi Calm Calm - N/A   Overcast
1:15 AM 56.7 °F - 55.6 °F 96% 30.10 in 7.0 mi Calm Calm - N/A   Overcast
1:35 AM 57.2 °F - 55.8 °F 95% 30.10 in 7.0 mi Calm Calm - N/A   Overcast
1:55 AM 56.7 °F - 55.6 °F 96% 30.10 in 7.0 mi Calm Calm - N/A   Overcast
2:15 AM 56.1 °F - 55.2 °F 97% 30.10 in 5.0 mi Calm Calm - N/A   Overcast
2:35 AM 55.4 °F - 54.7 °F 97% 30.10 in 5.0 mi Calm Calm - N/A   Overcast
2:55 AM 56.3 °F - 55.4 °F 97% 30.10 in 5.0 mi Calm Calm - N/A   Overcast
3:15 AM 55.6 °F - 54.9 °F 97% 30.10 in 4.0 mi Calm Calm - N/A   Overcast
3:35 AM 55.4 °F - 54.9 °F 98% 30.10 in 4.0 mi Calm Calm - N/A   Overcast
3:55 AM 55.4 °F - 55.0 °F 99% 30.09 in 3.0 mi Calm Calm - N/A   Mostly Cloudy
4:15 AM 54.7 °F - 54.5 °F 99% 30.09 in 1.8 mi Calm Calm - N/A   Scattered Clouds
4:35 AM 54.7 °F - 54.5 °F 99% 30.08 in 0.2 mi Calm Calm - N/A Fog Fog
4:55 AM 52.5 °F - 52.3 °F 99% 30.09 in 0.2 mi Calm Calm - N/A Fog Fog
5:15 AM 52.9 °F - 52.7 °F 99% 30.09 in 0.2 mi Calm Calm - N/A Fog Fog
5:35 AM 52.0 °F - 51.8 °F 99% 30.09 in 0.5 mi Calm Calm - N/A Fog Fog
5:55 AM 51.1 °F - 50.7 °F 99% 30.09 in 0.2 mi Calm Calm - N/A Fog Fog
6:15 AM 49.8 °F - 49.6 °F 99% 30.10 in 0.2 mi Calm Calm - N/A Fog Fog
6:35 AM 50.4 °F - 50.4 °F 100% 30.09 in 0.5 mi Calm Calm - N/A Fog Fog
6:55 AM 47.1 °F - 46.9 °F 99% 30.11 in 0.5 mi SSW 3.5 mph - N/A Fog Fog
7:15 AM 48.4 °F - 48.4 °F 100% 30.10 in 0.2 mi Calm Calm - N/A Fog Fog
7:35 AM 49.5 °F - 49.5 °F 100% 30.11 in 10.0 mi NE 3.5 mph - N/A   Scattered Clouds
7:55 AM 49.1 °F - 49.1 °F 100% 30.12 in 10.0 mi Calm Calm - N/A   Mostly Cloudy
8:15 AM 52.0 °F - 50.5 °F 95% 30.13 in 10.0 mi NE 3.5 mph - N/A   Scattered Clouds
8:35 AM 52.3 °F - 49.6 °F 91% 30.13 in 10.0 mi Calm Calm - N/A   Overcast
8:55 AM 53.6 °F - 48.9 °F 84% 30.14 in 10.0 mi North 4.6 mph - N/A   Overcast
9:15 AM 54.1 °F - 46.6 °F 76% 30.14 in 10.0 mi North 5.8 mph - N/A   Overcast
9:35 AM 55.2 °F - 45.5 °F 70% 30.15 in 10.0 mi North 8.1 mph - N/A   Overcast
9:55 AM 55.4 °F - 44.8 °F 67% 30.15 in 10.0 mi North 5.8 mph - N/A   Overcast
10:15 AM 55.4 °F - 44.4 °F 67% 30.15 in 10.0 mi North 3.5 mph - N/A   Overcast
10:35 AM 55.6 °F - 44.8 °F 67% 30.15 in 10.0 mi NW 4.6 mph - N/A   Overcast
10:55 AM 56.1 °F - 44.2 °F 64% 30.14 in 10.0 mi Calm Calm - N/A   Overcast
11:15 AM 56.1 °F - 43.7 °F 63% 30.12 in 10.0 mi North 3.5 mph - N/A   Overcast
11:35 AM 56.3 °F - 43.7 °F 63% 30.12 in 10.0 mi NNW 6.9 mph - N/A   Overcast
11:55 AM 57.2 °F - 43.9 °F 61% 30.11 in 10.0 mi North 4.6 mph - N/A   Overcast
12:15 PM 57.2 °F - 43.7 °F 61% 30.12 in 10.0 mi NW 4.6 mph - N/A   Overcast
12:35 PM 58.3 °F - 43.3 °F 58% 30.10 in 10.0 mi North 8.1 mph - N/A   Overcast
12:55 PM 57.7 °F - 39.6 °F 51% 30.09 in 10.0 mi NW 9.2 mph - N/A   Overcast
1:15 PM 57.6 °F - 38.1 °F 48% 30.09 in 10.0 mi NNW 6.9 mph - N/A   Mostly Cloudy
1:35 PM 58.5 °F - 37.2 °F 45% 30.07 in 10.0 mi North 6.9 mph - N/A   Scattered Clouds
1:55 PM 59.0 °F - 32.2 °F 36% 30.07 in 10.0 mi NW 9.2 mph - N/A   Clear
2:15 PM 58.5 °F - 31.3 °F 36% 30.07 in 10.0 mi WNW 10.4 mph - N/A   Scattered Clouds
2:35 PM 57.2 °F - 28.8 °F 34% 30.08 in 10.0 mi NNW 5.8 mph - N/A   Scattered Clouds
2:55 PM 58.6 °F - 27.9 °F 31% 30.07 in 10.0 mi North 9.2 mph - N/A   Clear
3:15 PM 57.9 °F - 28.8 °F 33% 30.07 in 10.0 mi NNW 9.2 mph - N/A   Clear
3:35 PM 57.9 °F - 28.9 °F 33% 30.08 in 10.0 mi North 10.4 mph - N/A   Clear
3:55 PM 57.2 °F - 28.4 °F 33% 30.08 in 10.0 mi NNW 6.9 mph - N/A   Clear
4:15 PM 55.8 °F - 25.0 °F 31% 30.09 in 10.0 mi NNW 8.1 mph - N/A   Clear
4:35 PM 55.2 °F - 25.7 °F 32% 30.09 in 10.0 mi NW 8.1 mph - N/A   Clear
4:55 PM 52.5 °F - 28.2 °F 39% 30.10 in 10.0 mi WNW 9.2 mph - N/A   Clear
5:15 PM 51.1 °F - 27.7 °F 40% 30.11 in 10.0 mi NW 6.9 mph - N/A   Clear
5:35 PM 50.0 °F - 28.4 °F 43% 30.11 in 10.0 mi WNW 5.8 mph - N/A   Clear
5:55 PM 50.9 °F - 21.2 °F 31% 30.12 in 10.0 mi NNW 6.9 mph 10.4 mph N/A   Clear
6:15 PM 50.4 °F - 19.4 °F 30% 30.12 in 10.0 mi NNW 8.1 mph - N/A   Clear
6:35 PM 49.6 °F - 19.9 °F 31% 30.13 in 10.0 mi North 8.1 mph - N/A   Clear
6:55 PM 49.1 °F - 20.8 °F 33% 30.13 in 10.0 mi NNW 10.4 mph 17.3 mph N/A   Clear
7:15 PM 48.2 °F - 22.5 °F 36% 30.14 in 10.0 mi NW 8.1 mph - N/A   Clear
7:35 PM 46.9 °F - 23.5 °F 40% 30.14 in 10.0 mi NW 5.8 mph - N/A   Clear
7:55 PM 46.8 °F - 23.4 °F 40% 30.14 in 10.0 mi WNW 3.5 mph - N/A   Clear
8:15 PM 45.7 °F 43.4 °F 21.7 °F 39% 30.14 in 10.0 mi NW 4.6 mph - N/A   Clear
8:35 PM 45.5 °F 43.2 °F 19.4 °F 35% 30.15 in 10.0 mi North 4.6 mph - N/A   Clear
8:55 PM 44.2 °F 39.7 °F 20.7 °F 39% 30.15 in 10.0 mi NNW 8.1 mph - N/A   Clear
9:15 PM 44.1 °F 38.6 °F 15.3 °F 31% 30.16 in 10.0 mi NNW 10.4 mph - N/A   Clear
9:35 PM 43.3 °F 38.1 °F 13.8 °F 30% 30.16 in 10.0 mi NNW 9.2 mph - N/A   Clear
9:55 PM 42.8 °F 40.1 °F 13.3 °F 30% 30.18 in 10.0 mi North 4.6 mph - N/A   Clear
10:15 PM 41.2 °F 38.2 °F 15.4 °F 35% 30.18 in 10.0 mi North 4.6 mph - N/A   Clear
10:35 PM 40.8 °F 38.8 °F 17.1 °F 38% 30.19 in 10.0 mi NNW 3.5 mph - N/A   Clear
10:55 PM 40.3 °F 36.3 °F 19.0 °F 43% 30.19 in 10.0 mi NW 5.8 mph - N/A   Clear
11:15 PM 39.9 °F 33.9 °F 19.2 °F 43% 30.20 in 10.0 mi NW 9.2 mph 20.7 mph N/A   Clear
11:35 PM 39.6 °F 34.0 °F 18.5 °F 43% 30.21 in 10.0 mi NW 8.1 mph - N/A   Clear
11:55 PM 39.2 °F 33.0 °F 18.3 °F 43% 30.22 in 10.0 mi NNW 9.2 mph 17.3 mph N/A   Clear